Regional Weather Roundup
Issued by NWS State College, PA

Home | Current Version | Previous Version | Graphics & Text | Print | Product List | Glossary On
Versions: 1 2 3 4 5 6 7 8 9 10 11 12 13 14 15 16 17 18 19 20 21 22 23 24 25 26 27 28 29 30 31 32 33 34 35 36 37 38 39 40 41 42 43 44 45 46 47 48 49 50
000
ASUS41 KCTP 272210
RWRCTP

REGIONAL WEATHER ROUNDUP
NATIONAL WEATHER SERVICE STATE COLLEGE PA
600 PM EDT MON APR 27 2015

Note: "fair" indicates few or no clouds below 12,000 feet with no
significant weather and/or obstructions to visibility.

* = STATION THAT DOES NOT REPORT PRECIPITATION /E.G. RAIN...SNOW...ETC/
    THUNDER OR FOG.

PAZ002>004-007>009-013>016-020>023-029>032-272300-
WESTERN PENNSYLVANIA

CITY           SKY/WX    TMP DP  RH WIND       PRES   REMARKS
ERIE           CLOUDY    42  36  79 W8        29.96S
MEADVILLE      CLOUDY    42  34  73 NW8       29.94R
FRANKLIN*      CLOUDY    43  32  65 NW10      29.94R
NEW CASTLE     MOCLDY    44  35  70 NW10      29.98R
BEAVER COUNTY  CLOUDY    43  34  70 NW10G20   29.96R
BUTLER*        CLOUDY    43  34  70 NW6       29.96R
PITTSBURGH INT CLOUDY    44  34  67 NW20      29.96R
PITTSBURGH     CLOUDY    43  32  65 NW13G20   29.93R
INDIANA*       CLOUDY    45  37  76 NW8G14    29.93R
LATROBE        CLOUDY    45  37  76 NW12G21   29.94R
WASHINGTON CO* CLOUDY    45  30  57 NW12G21   29.98R
$$

PAZ004>006-010>012-017>019-024>028-033>037-041-042-045-046-049>053-272300-
CENTRAL PENNSYLVANIA

CITY           SKY/WX    TMP DP  RH WIND       PRES   REMARKS
BRADFORD       LGT RAIN  42  34  73 N13       29.86R
DUBOIS         CLOUDY    46  33  60 NW12G21   29.86R
CLEARFIELD     CLOUDY    46  35  65 NW14G32   29.85R
JOHNSTOWN      LGT RAIN  42  34  73 NW17G25   29.85R
ALTOONA        LGT RAIN  47  37  68 N20G25    29.84R
STATE COLLEGE  PTSUNNY   48  37  66 NW6       29.81S
WILLIAMSPORT   PTSUNNY   54  34  46 N14G20    29.79R
SELINSGROVE    PTSUNNY   54  34  46 NW9       29.79R
FT INDIANTOWN  PTSUNNY   57  30  36 N13G21    29.77R
CAPITAL CITY   CLOUDY    56  31  38 NW12      29.79R
HARRISBURG     PTSUNNY   56  31  38 NW13      29.78R
YORK           CLOUDY    55  33  43 NW13      29.78R
$$

PAZ038>040-043-044-047-048-054-055-060>062-067>071-272300-
EASTERN PENNSYLVANIA

CITY           SKY/WX    TMP DP  RH WIND       PRES   REMARKS
SCRANTON       CLOUDY    51  33  50 N13G26    29.75R
MOUNT POCONO   CLOUDY    48  31  51 NW10G26   29.70S
ALLENTOWN      CLOUDY    56  32  40 NW18G24   29.72R
QUAKERTOWN*    CLOUDY    55  32  41 NW8G16    29.73R
READING        CLOUDY    55  32  41 NW13      29.75R
LANCASTER      CLOUDY    54  32  43 NW13      29.76R
COATESVILLE    CLOUDY    54  32  43 NW16      29.75R
POTTSTOWN      CLOUDY    55  32  41 W12G18    29.75R
BLUE BELL      MOSUNNY   57  34  41 NW7       29.72R
DOYLESTOWN     CLOUDY    55  31  39 NW13G20   29.71R
WILLOW GROVE   NOT AVBL
NORTH PHILA    CLOUDY    59  30  33 NW13G21   29.73R
PHILADELPHIA   PTSUNNY   59  31  34 NW13      29.73R
$$


USA.gov is the U.S. government's official web portal to all federal, state and local government web resources and services.